Location: Newark
(52.3500°N, 175.9667°E)
Time: 06:34:21
(UTC+00:00)

S-56A Canister/Altair - Pass Details

Date: 19 April 2021
Orbit: 631 x 2501 km, 38.9° (Epoch: 12 May)

Event Time Altitude Azimuth Distance (km) Brightness Sun altitude
Rises 14:20:21 0° 248° (WSW) 3,641 - -20.8°
Reaches altitude 10° 14:24:01 10° 230° (SW) 2,420 - -20.5°
Maximum altitude 14:27:34 18° 189° (S) 1,740 - -20.2°
Drops below altitude 10° 14:30:40 10° 147° (SSE) 2,073 - -19.9°
Exits shadow 14:30:49 10° 145° (SE) 2,106 9.6 -19.9°
Sets 14:33:29 0° 126° (SE) 2,919 10.5 -19.7°
